Time,TemperatureF,DewpointF,PressureIn,WindDirection,WindDirectionDegrees,WindSpeedMPH,WindSpeedGustMPH,Humidity,HourlyPrecipIn,Conditions,Clouds,dailyrainin,SoftwareType,DateUTC
2013-03-11 00:00:00,54.7,50.3,29.64,WNW,301,8.0,21.0,85,0.00,RA,,0.00,WeatherDisplay:10.37,2013-03-10 23:00:00,
2013-03-11 00:15:00,54.4,50.3,29.64,NW,312,9.0,20.0,86,0.00,CLR,,0.00,WeatherDisplay:10.37,2013-03-10 23:15:00,
2013-03-11 00:30:00,54.3,50.2,29.64,NW,316,8.0,20.0,86,0.00,CLR,,0.00,WeatherDisplay:10.37,2013-03-10 23:30:00,
2013-03-11 00:45:00,54.3,50.2,29.64,NW,304,6.0,21.0,86,0.00,CLR,,0.00,WeatherDisplay:10.37,2013-03-10 23:45:00,
2013-03-11 01:00:00,54.4,50.3,29.64,NW,316,9.0,18.0,86,0.00,CLR,,0.00,WeatherDisplay:10.37,2013-03-11 00:00:00,
2013-03-11 01:15:00,54.3,50.2,29.65,WNW,295,8.0,17.0,86,0.00,CLR,,0.00,WeatherDisplay:10.37,2013-03-11 00:15:00,
2013-03-11 01:30:00,54.3,50.2,29.65,WNW,298,5.0,17.0,86,0.00,CLR,,0.00,WeatherDisplay:10.37,2013-03-11 00:30:00,
2013-03-11 01:45:00,54.0,49.3,29.64,NNW,329,9.0,18.0,84,0.00,CLR,,0.00,WeatherDisplay:10.37,2013-03-11 00:45:00,
2013-03-11 02:00:00,54.0,49.0,29.64,NW,316,6.0,17.0,83,0.00,CLR,,0.00,WeatherDisplay:10.37,2013-03-11 01:00:00,
2013-03-11 02:15:00,53.7,48.7,29.64,WNW,298,8.0,20.0,83,0.00,CLR,,0.00,WeatherDisplay:10.37,2013-03-11 01:15:00,
2013-03-11 02:30:00,53.7,48.3,29.64,WNW,300,7.0,15.0,82,0.00,CLR,,0.00,WeatherDisplay:10.37,2013-03-11 01:30:00,
2013-03-11 02:45:00,53.8,48.4,29.64,WNW,302,12.0,20.0,82,0.00,CLR,,0.00,WeatherDisplay:10.37,2013-03-11 01:45:00,
2013-03-11 03:00:00,54.0,48.3,29.64,WNW,293,7.0,21.0,81,0.00,CLR,,0.00,WeatherDisplay:10.37,2013-03-11 02:00:00,
2013-03-11 03:15:00,53.8,47.8,29.64,NNW,327,5.0,12.0,80,0.00,CLR,,0.00,WeatherDisplay:10.37,2013-03-11 02:15:00,
2013-03-11 03:30:00,53.8,46.1,29.65,NW,321,10.0,17.0,75,0.00,CLR,,0.00,WeatherDisplay:10.37,2013-03-11 02:30:00,
2013-03-11 03:44:00,54.0,45.9,29.65,NNW,332,7.0,16.0,74,0.00,CLR,,0.00,WeatherDisplay:10.37,2013-03-11 02:44:00,
2013-03-11 04:00:00,53.8,46.4,29.65,WNW,286,9.0,16.0,76,0.00,CLR,,0.00,WeatherDisplay:10.37,2013-03-11 03:00:00,
2013-03-11 04:15:00,53.8,46.4,29.64,WNW,301,6.0,16.0,76,0.00,CLR,,0.00,WeatherDisplay:10.37,2013-03-11 03:15:00,
2013-03-11 04:30:00,53.8,46.8,29.64,WNW,298,3.0,13.0,77,0.00,CLR,,0.00,WeatherDisplay:10.37,2013-03-11 03:30:00,
2013-03-11 04:45:00,53.8,46.4,29.64,NW,309,6.0,13.0,76,0.00,CLR,,0.00,WeatherDisplay:10.37,2013-03-11 03:45:00,
2013-03-11 05:00:00,53.8,47.8,29.64,WNW,296,8.0,12.0,80,0.00,CLR,,0.00,WeatherDisplay:10.37,2013-03-11 04:00:00,
2013-03-11 05:15:00,53.7,47.7,29.64,WNW,301,6.0,15.0,80,0.00,CLR,,0.00,WeatherDisplay:10.37,2013-03-11 04:15:00,
2013-03-11 05:30:00,53.5,45.8,29.64,NW,311,6.0,14.0,75,0.00,CLR,,0.00,WeatherDisplay:10.37,2013-03-11 04:30:00,
2013-03-11 05:45:00,53.4,45.3,29.64,NW,322,6.0,13.0,74,0.00,CLR,,0.00,WeatherDisplay:10.37,2013-03-11 04:45:00,
2013-03-11 06:00:00,53.2,44.8,29.64,NW,312,3.0,13.0,73,0.00,CLR,,0.00,WeatherDisplay:10.37,2013-03-11 05:00:00,
2013-03-11 06:15:00,53.1,46.4,29.64,NW,319,5.0,9.0,78,0.00,CLR,,0.00,WeatherDisplay:10.37,2013-03-11 05:15:00,
2013-03-11 06:30:00,53.0,48.0,29.64,WNW,286,5.0,9.0,83,0.00,CLR,,0.00,WeatherDisplay:10.37,2013-03-11 05:30:00,
2013-03-11 06:45:00,52.8,48.1,29.65,WNW,287,5.0,10.0,84,0.00,CLR,,0.00,WeatherDisplay:10.37,2013-03-11 05:45:00,
2013-03-11 07:00:00,52.8,48.1,29.65,West,265,2.0,7.0,84,0.00,CLR,,0.00,WeatherDisplay:10.37,2013-03-11 06:00:00,
2013-03-11 07:15:00,53.2,48.5,29.65,West,275,2.0,7.0,84,0.00,CLR,,0.00,WeatherDisplay:10.37,2013-03-11 06:15:00,
2013-03-11 07:30:00,53.6,48.9,29.65,West,280,6.0,10.0,84,0.00,CLR,,0.00,WeatherDisplay:10.37,2013-03-11 06:30:00,
2013-03-11 07:45:00,53.7,49.0,29.65,West,267,8.0,12.0,84,0.00,CLR,,0.00,WeatherDisplay:10.37,2013-03-11 06:45:00,
2013-03-11 08:00:00,53.5,48.8,29.65,WNW,285,5.0,12.0,84,0.00,CLR,,0.00,WeatherDisplay:10.37,2013-03-11 07:00:00,
2013-03-11 08:15:00,54.3,49.2,29.65,WNW,291,6.0,13.0,83,0.00,CLR,,0.00,WeatherDisplay:10.37,2013-03-11 07:15:00,
2013-03-11 08:30:00,55.3,49.6,29.66,WNW,288,7.0,13.0,81,0.00,CLR,,0.00,WeatherDisplay:10.37,2013-03-11 07:30:00,
2013-03-11 08:45:00,54.9,49.8,29.65,West,266,8.0,16.0,83,0.00,CLR,,0.00,WeatherDisplay:10.37,2013-03-11 07:45:00,
2013-03-11 09:00:00,55.0,50.6,29.65,West,261,6.0,14.0,85,0.00,CLR,,0.00,WeatherDisplay:10.37,2013-03-11 08:00:00,
2013-03-11 09:15:00,55.6,50.5,29.65,West,264,2.0,16.0,83,0.00,CLR,,0.00,WeatherDisplay:10.37,2013-03-11 08:15:00,
2013-03-11 09:30:00,55.8,51.0,29.65,West,265,8.0,14.0,84,0.00,CLR,,0.00,WeatherDisplay:10.37,2013-03-11 08:30:00,
2013-03-11 09:45:00,55.6,50.5,29.66,West,267,8.0,12.0,83,0.00,CLR,,0.00,WeatherDisplay:10.37,2013-03-11 08:45:00,
2013-03-11 10:00:00,54.9,50.2,29.66,West,264,9.0,14.0,84,0.00,CLR,,0.00,WeatherDisplay:10.37,2013-03-11 09:00:00,
2013-03-11 10:15:00,54.9,50.2,29.66,West,264,8.0,16.0,84,0.00,CLR,,0.00,WeatherDisplay:10.37,2013-03-11 09:15:00,
2013-03-11 10:30:00,55.2,49.8,29.67,West,280,10.0,15.0,82,0.00,CLR,,0.00,WeatherDisplay:10.37,2013-03-11 09:30:00,
2013-03-11 10:45:00,54.6,50.8,29.66,West,267,6.0,17.0,87,0.00,CLR,,0.00,WeatherDisplay:10.37,2013-03-11 09:45:00,
2013-03-11 11:00:00,54.8,50.7,29.66,WSW,258,6.0,12.0,86,0.00,CLR,,0.00,WeatherDisplay:10.37,2013-03-11 10:00:00,
2013-03-11 11:15:00,54.7,50.9,29.66,West,268,6.0,12.0,87,0.00,CLR,,0.00,WeatherDisplay:10.37,2013-03-11 10:15:00,
2013-03-11 11:30:00,54.9,50.8,29.66,West,263,10.0,14.0,86,0.00,CLR,,0.00,WeatherDisplay:10.37,2013-03-11 10:30:00,
2013-03-11 11:45:00,55.0,50.9,29.66,West,264,8.0,15.0,86,0.00,CLR,,0.00,WeatherDisplay:10.37,2013-03-11 10:45:00,
2013-03-11 12:00:00,55.0,50.9,29.65,West,261,10.0,16.0,86,0.00,CLR,,0.00,WeatherDisplay:10.37,2013-03-11 11:00:00,
2013-03-11 12:15:00,54.7,51.2,29.65,West,268,8.0,17.0,88,0.00,CLR,,0.00,WeatherDisplay:10.37,2013-03-11 11:15:00,
2013-03-11 12:30:00,54.7,51.2,29.64,West,269,9.0,18.0,88,0.00,CLR,,0.00,WeatherDisplay:10.37,2013-03-11 11:30:00,
2013-03-11 12:45:00,55.0,50.6,29.64,WNW,292,7.0,18.0,85,0.00,CLR,,0.00,WeatherDisplay:10.37,2013-03-11 11:45:00,
2013-03-11 13:00:00,55.5,50.5,29.63,WNW,283,6.0,16.0,83,0.00,CLR,,0.00,WeatherDisplay:10.37,2013-03-11 12:00:00,
2013-03-11 13:15:00,56.5,50.4,29.63,WNW,287,7.0,18.0,80,0.00,CLR,,0.00,WeatherDisplay:10.37,2013-03-11 12:15:00,
2013-03-11 13:30:00,56.4,49.3,29.62,West,281,8.0,20.0,77,0.00,CLR,,0.00,WeatherDisplay:10.37,2013-03-11 12:30:00,
2013-03-11 13:45:00,57.4,46.1,29.62,West,279,9.0,18.0,66,0.00,CLR,,0.00,WeatherDisplay:10.37,2013-03-11 12:45:00,
2013-03-11 14:00:00,57.9,46.6,29.62,WNW,287,7.0,18.0,66,0.00,CLR,,0.00,WeatherDisplay:10.37,2013-03-11 13:00:00,
2013-03-11 14:15:00,56.5,47.2,29.62,WNW,287,10.0,22.0,71,0.00,CLR,,0.00,WeatherDisplay:10.37,2013-03-11 13:15:00,
2013-03-11 14:30:00,56.8,48.2,29.62,WNW,282,9.0,20.0,73,0.00,CLR,,0.00,WeatherDisplay:10.37,2013-03-11 13:30:00,
2013-03-11 14:45:00,56.1,47.9,29.62,WNW,284,10.0,22.0,74,0.00,CLR,,0.00,WeatherDisplay:10.37,2013-03-11 13:45:00,
2013-03-11 15:00:00,56.1,48.2,29.62,West,271,9.0,22.0,75,0.00,CLR,,0.00,WeatherDisplay:10.37,2013-03-11 14:00:00,
2013-03-11 15:15:00,55.3,48.2,29.62,West,278,10.0,22.0,77,0.00,CLR,,0.00,WeatherDisplay:10.37,2013-03-11 14:15:00,
2013-03-11 15:30:00,55.5,48.1,29.62,WNW,285,10.0,23.0,76,0.00,CLR,,0.00,WeatherDisplay:10.37,2013-03-11 14:30:00,
2013-03-11 15:45:00,55.3,46.8,29.62,West,280,9.0,21.0,73,0.00,CLR,,0.00,WeatherDisplay:10.37,2013-03-11 14:45:00,
2013-03-11 16:00:00,55.9,48.0,29.61,West,273,10.0,21.0,75,0.00,CLR,,0.00,WeatherDisplay:10.37,2013-03-11 15:00:00,
2013-03-11 16:15:00,55.5,48.8,29.61,West,280,5.0,16.0,78,0.00,CLR,,0.00,WeatherDisplay:10.37,2013-03-11 15:15:00,
2013-03-11 16:30:00,55.3,48.9,29.61,West,277,7.0,16.0,79,0.00,CLR,,0.00,WeatherDisplay:10.37,2013-03-11 15:30:00,
2013-03-11 16:45:00,55.3,48.9,29.61,WNW,285,9.0,20.0,79,0.00,CLR,,0.00,WeatherDisplay:10.37,2013-03-11 15:45:00,
2013-03-11 17:00:00,55.6,45.9,29.61,WNW,293,9.0,16.0,70,0.00,CLR,,0.00,WeatherDisplay:10.37,2013-03-11 16:00:00,
2013-03-11 17:15:00,55.0,46.5,29.60,WNW,287,8.0,17.0,73,0.00,CLR,,0.00,WeatherDisplay:10.37,2013-03-11 16:15:00,
2013-03-11 17:30:00,55.2,47.4,29.61,WNW,301,7.0,16.0,75,0.00,CLR,,0.00,WeatherDisplay:10.37,2013-03-11 16:30:00,
2013-03-11 17:45:00,54.7,47.3,29.61,WNW,301,6.0,14.0,76,0.00,CLR,,0.00,WeatherDisplay:10.37,2013-03-11 16:45:00,
2013-03-11 18:00:00,54.4,48.0,29.61,West,280,6.0,12.0,79,0.00,CLR,,0.00,WeatherDisplay:10.37,2013-03-11 17:00:00,
2013-03-11 18:15:00,54.3,48.9,29.61,WNW,292,6.0,12.0,82,0.00,CLR,,0.00,WeatherDisplay:10.37,2013-03-11 17:15:00,
2013-03-11 18:30:00,54.0,49.0,29.61,WNW,290,1.0,12.0,83,0.00,CLR,,0.00,WeatherDisplay:10.37,2013-03-11 17:30:00,
2013-03-11 18:45:00,54.0,49.0,29.61,West,280,6.0,10.0,83,0.00,CLR,,0.00,WeatherDisplay:10.37,2013-03-11 17:45:00,
2013-03-11 19:00:00,54.0,49.3,29.62,West,272,5.0,13.0,84,0.00,CLR,,0.00,WeatherDisplay:10.37,2013-03-11 18:00:00,
2013-03-11 19:15:00,54.0,49.9,29.63,West,273,5.0,15.0,86,0.00,CLR,,0.00,WeatherDisplay:10.37,2013-03-11 18:15:00,
2013-03-11 19:30:00,54.0,50.2,29.63,West,277,8.0,17.0,87,0.00,CLR,,0.00,WeatherDisplay:10.37,2013-03-11 18:30:00,
2013-03-11 19:45:00,53.7,49.9,29.62,West,272,10.0,20.0,87,0.00,CLR,,0.00,WeatherDisplay:10.37,2013-03-11 18:45:00,
2013-03-11 20:00:00,53.5,49.7,29.62,WNW,286,14.0,23.0,87,0.00,CLR,,0.00,WeatherDisplay:10.37,2013-03-11 19:00:00,
2013-03-11 20:15:00,53.4,49.6,29.62,WNW,282,10.0,22.0,87,0.00,CLR,,0.00,WeatherDisplay:10.37,2013-03-11 19:15:00,
2013-03-11 20:30:00,53.1,48.1,29.62,WNW,282,14.0,20.0,83,0.00,CLR,,0.00,WeatherDisplay:10.37,2013-03-11 19:30:00,
2013-03-11 20:45:00,53.3,47.6,29.62,WNW,282,8.0,20.0,81,0.00,CLR,,0.00,WeatherDisplay:10.37,2013-03-11 19:45:00,
2013-03-11 21:00:00,53.1,47.1,29.63,WNW,287,9.0,18.0,80,0.00,CLR,,0.00,WeatherDisplay:10.37,2013-03-11 20:00:00,
2013-03-11 21:15:00,53.4,45.7,29.63,WNW,289,8.0,20.0,75,0.00,CLR,,0.00,WeatherDisplay:10.37,2013-03-11 20:15:00,
2013-03-11 21:30:00,53.4,45.3,29.63,WNW,291,9.0,16.0,74,0.00,CLR,,0.00,WeatherDisplay:10.37,2013-03-11 20:30:00,
2013-03-11 21:45:00,53.4,45.3,29.63,WNW,297,2.0,16.0,74,0.00,CLR,,0.00,WeatherDisplay:10.37,2013-03-11 20:45:00,
2013-03-11 22:00:00,53.4,45.3,29.63,NW,314,6.0,14.0,74,0.00,CLR,,0.00,WeatherDisplay:10.37,2013-03-11 21:00:00,
2013-03-11 22:15:00,53.4,45.7,29.63,NW,308,10.0,18.0,75,0.00,CLR,,0.00,WeatherDisplay:10.37,2013-03-11 21:15:00,
2013-03-11 22:30:00,53.2,46.2,29.63,WNW,303,9.0,16.0,77,0.00,CLR,,0.00,WeatherDisplay:10.37,2013-03-11 21:30:00,
2013-03-11 22:45:00,53.1,46.4,29.63,WNW,297,8.0,12.0,78,0.00,CLR,,0.00,WeatherDisplay:10.37,2013-03-11 21:45:00,
2013-03-11 23:00:00,53.1,46.1,29.63,WNW,292,2.0,15.0,77,0.00,CLR,,0.00,WeatherDisplay:10.37,2013-03-11 22:00:00,
2013-03-11 23:15:00,53.0,45.6,29.62,WNW,284,7.0,12.0,76,0.00,CLR,,0.00,WeatherDisplay:10.37,2013-03-11 22:15:00,
2013-03-11 23:30:00,52.8,46.1,29.63,WNW,286,8.0,12.0,78,0.00,CLR,,0.00,WeatherDisplay:10.37,2013-03-11 22:30:00,
2013-03-11 23:45:00,52.7,46.4,29.63,WNW,289,7.0,14.0,79,0.00,CLR,,0.00,WeatherDisplay:10.37,2013-03-11 22:45:00,